Tracking 31027 objects as of 19-Jul-2025
HD Live streaming from Space Station
objects crossing your sky now

STARLINK-1210

Track STARLINK-1210 now!
10-day predictions
STARLINK-1210 is classified as:


NORAD ID: 45207
Int'l Code: 2020-012AF
Perigee: 460.1 km
Apogee: 466.5 km
Inclination: 53.0 °
Period: 93.7 minutes
Semi major axis: 6834 km
RCS: Unknown
Launch date: February 17, 2020
Source: United States (US)
Launch site: AIR FORCE EASTERN TEST RANGE (AFETR)
Your satellite tracking list
FLOCK 4V 13
Track 1 satellite(s)




NASA's NSSDC Master Catalog

Two Line Element Set (TLE):
1 45207U 20012AF  25199.64720473  .00072304  00000-0  19848-2 0  9990
2 45207  53.0316 326.0508 0004734  63.9788 296.1701 15.36608543300281
Source of the keplerian elements: AFSPC